Lincoln County, Oregon, United States
Lat: 44.65N, Lon: 123.85W
Wx Zone: ORZ004
Local Info
Past Weather Observations for Saturday, February 6, 2016

NOTE: This archive is for the closest National Weather Service station to Lincoln County. Information may differ from the station used for current weather conditions.

Click here for Long-term Archive

Time Weather Temperature Dewpoint Humidity Pressure Winds Precip Visibility
23:55
Overcast
48°F / 9°C 45°F / 7°C 87% 30.45 in
(1031 mb)
E 5.8 mph
(E 9 kph)
- 7SM
23:35
Overcast
48°F / 9°C 45°F / 7°C 87% 30.45 in
(1031 mb)
E 5.8 mph
(E 9 kph)
- 7SM
23:15
Overcast
50°F / 10°C 45°F / 7°C 82% 30.45 in
(1031 mb)
E 4.6 mph
(E 7 kph)
- 10SM
22:55
Overcast
50°F / 10°C 45°F / 7°C 82% 30.45 in
(1031 mb)
E 4.6 mph
(E 7 kph)
- 10SM
22:35
Overcast
48°F / 9°C 43°F / 6°C 82% 30.42 in
(1030 mb)
E 8.1 mph
(E 13 kph)
- 10SM
22:15
Overcast
48°F / 9°C 43°F / 6°C 82% 30.42 in
(1030 mb)
E 6.9 mph
(E 11 kph)
- 10SM
21:55
Overcast
48°F / 9°C 43°F / 6°C 82% 30.42 in
(1030 mb)
E 6.9 mph
(E 11 kph)
- 10SM
21:35
Overcast
48°F / 9°C 43°F / 6°C 82% 30.42 in
(1030 mb)
E 5.8 mph
(E 9 kph)
- 10SM
21:15
Overcast
48°F / 9°C 43°F / 6°C 82% 30.42 in
(1030 mb)
E 6.9 mph
(E 11 kph)
- 10SM
20:55
Overcast
48°F / 9°C 43°F / 6°C 82% 30.42 in
(1030 mb)
E 8.1 mph
(E 13 kph)
- 10SM
20:15
Overcast
48°F / 9°C 43°F / 6°C 82% 30.42 in
(1030 mb)
E 5.8 mph
(E 9 kph)
- 10SM
19:55
Overcast
48°F / 9°C 43°F / 6°C 82% 30.42 in
(1030 mb)
E 5.8 mph
(E 9 kph)
- 10SM
19:35
Mostly Cloudy
48°F / 9°C 43°F / 6°C 82% 30.42 in
(1030 mb)
E 5.8 mph
(E 9 kph)
- 10SM
19:15
Mostly Cloudy
48°F / 9°C 41°F / 5°C 76% 30.42 in
(1030 mb)
ESE 4.6 mph
(ESE 7 kph)
- 10SM
18:55
Partly Cloudy
48°F / 9°C 41°F / 5°C 76% 30.42 in
(1030 mb)
E 4.6 mph
(E 7 kph)
- 10SM
18:35
Clear
48°F / 9°C 43°F / 6°C 82% 30.42 in
(1030 mb)
E 6.9 mph
(E 11 kph)
- 10SM
18:15
Partly Cloudy
50°F / 10°C 41°F / 5°C 71% 30.42 in
(1030 mb)
ENE 3.5 mph
(ENE 6 kph)
- 10SM
17:55
Partly Cloudy
50°F / 10°C 41°F / 5°C 71% 30.42 in
(1030 mb)
Calm - 10SM
17:35
Mostly Cloudy
50°F / 10°C 41°F / 5°C 71% 30.42 in
(1030 mb)
E 5.8 mph
(E 9 kph)
- 10SM
17:15
Clear
50°F / 10°C 41°F / 5°C 71% 30.42 in
(1030 mb)
E 5.8 mph
(E 9 kph)
- 10SM
16:55
Clear
52°F / 11°C 41°F / 5°C 67% 30.42 in
(1030 mb)
E 8.1 mph
(E 13 kph)
- 10SM
16:35
Clear
52°F / 11°C 41°F / 5°C 67% 30.42 in
(1030 mb)
E 9.2 mph
(E 15 kph)
- 10SM
16:15
Clear
52°F / 11°C 41°F / 5°C 67% 30.42 in
(1030 mb)
E 8.1 mph
(E 13 kph)
- 10SM
15:55
Clear
54°F / 12°C 41°F / 5°C 63% 30.42 in
(1030 mb)
E 12.7 mph
(E 20 kph)
- 10SM
15:35
Clear
54°F / 12°C 43°F / 6°C 67% 30.42 in
(1030 mb)
E 9.2 mph
(E 15 kph)
- 10SM
15:15
Clear
54°F / 12°C 41°F / 5°C 63% 30.42 in
(1030 mb)
E 13.8 mph
(E 22 kph)
- 10SM
14:55
Clear
54°F / 12°C 43°F / 6°C 67% 30.39 in
(1029 mb)
E 13.8 mph
(E 22 kph)
- 10SM
14:35
Clear
52°F / 11°C 43°F / 6°C 72% 30.42 in
(1030 mb)
E 8.1 mph
(E 13 kph)
- 10SM
14:15
Clear
52°F / 11°C 43°F / 6°C 72% 30.42 in
(1030 mb)
ENE 10.4 mph
(ENE 17 kph)
- 10SM
13:55
Clear
52°F / 11°C 43°F / 6°C 72% 30.42 in
(1030 mb)
E 9.2 mph
(E 15 kph)
- 10SM
13:35
Clear
52°F / 11°C 43°F / 6°C 72% 30.39 in
(1029 mb)
E 11.5 mph
(E 19 kph)
- 10SM
13:15
Clear
52°F / 11°C 43°F / 6°C 72% 30.39 in
(1029 mb)
E 12.7 mph
(E 20 kph)
- 10SM
12:55
Clear
52°F / 11°C 43°F / 6°C 72% 30.39 in
(1029 mb)
E 11.5 mph
(E 19 kph)
- 10SM
12:35
Clear
52°F / 11°C 45°F / 7°C 77% 30.51 in
(1033 mb)
E 10.4 mph
(E 17 kph)
- 10SM
12:15
Clear
52°F / 11°C 43°F / 6°C 72% 30.42 in
(1030 mb)
ENE 12.7 mph
(ENE 20 kph)
- 10SM
11:55
Clear
50°F / 10°C 45°F / 7°C 82% 30.45 in
(1031 mb)
ENE 10.4 mph
(ENE 17 kph)
- 10SM
11:35
Clear
50°F / 10°C 45°F / 7°C 82% 30.51 in
(1033 mb)
ENE 11.5 mph
(ENE 19 kph)
- 10SM
11:15
Clear
46°F / 8°C 45°F / 7°C 93% 30.51 in
(1033 mb)
ENE 5.8 mph
(ENE 9 kph)
- 10SM
10:55
Clear
45°F / 7°C 43°F / 6°C 93% 30.54 in
(1034 mb)
E 8.1 mph
(E 13 kph)
- 10SM
10:35
Clear
45°F / 7°C 43°F / 6°C 93% 30.51 in
(1033 mb)
E 10.4 mph
(E 17 kph)
- 10SM
10:15
Clear
45°F / 7°C 43°F / 6°C 93% 30.51 in
(1033 mb)
E 8.1 mph
(E 13 kph)
- 10SM
09:55
Clear
43°F / 6°C 43°F / 6°C 100% 30.57 in
(1035 mb)
E 6.9 mph
(E 11 kph)
- 10SM
09:35
Clear
43°F / 6°C 43°F / 6°C 100% 30.51 in
(1033 mb)
E 8.1 mph
(E 13 kph)
- 10SM
09:15
Clear
43°F / 6°C 41°F / 5°C 93% 30.54 in
(1034 mb)
ENE 6.9 mph
(ENE 11 kph)
- 10SM
08:55
Clear
41°F / 5°C 41°F / 5°C 100% 30.51 in
(1033 mb)
E 5.8 mph
(E 9 kph)
- 10SM
08:35
Clear
41°F / 5°C 41°F / 5°C 100% 30.54 in
(1034 mb)
E 5.8 mph
(E 9 kph)
- 10SM
08:15
Clear
41°F / 5°C 39°F / 4°C 93% 30.54 in
(1034 mb)
E 5.8 mph
(E 9 kph)
- 10SM
07:55
Clear
41°F / 5°C 39°F / 4°C 93% 30.51 in
(1033 mb)
E 5.8 mph
(E 9 kph)
- 10SM
07:35
Clear
41°F / 5°C 39°F / 4°C 93% 30.51 in
(1033 mb)
ENE 5.8 mph
(ENE 9 kph)
- 10SM
07:15
Clear
41°F / 5°C 39°F / 4°C 93% 30.51 in
(1033 mb)
E 5.8 mph
(E 9 kph)
- 10SM
06:55
Clear
41°F / 5°C 39°F / 4°C 93% 30.51 in
(1033 mb)
E 6.9 mph
(E 11 kph)
- 10SM
06:35
Clear
41°F / 5°C 39°F / 4°C 93% 30.51 in
(1033 mb)
ENE 5.8 mph
(ENE 9 kph)
- 10SM
06:15
Clear
39°F / 4°C 39°F / 4°C 100% 30.45 in
(1031 mb)
E 5.8 mph
(E 9 kph)
- 10SM
05:55
Clear
39°F / 4°C 39°F / 4°C 100% 30.42 in
(1030 mb)
E 3.5 mph
(E 6 kph)
- 10SM
05:35
Clear
39°F / 4°C 39°F / 4°C 100% 30.42 in
(1030 mb)
E 5.8 mph
(E 9 kph)
- 10SM
05:15
Clear
39°F / 4°C 39°F / 4°C 100% 30.42 in
(1030 mb)
E 5.8 mph
(E 9 kph)
- 10SM
04:55
Clear
39°F / 4°C 39°F / 4°C 100% 30.42 in
(1030 mb)
E 5.8 mph
(E 9 kph)
- 10SM
04:35
Partly Cloudy
41°F / 5°C 39°F / 4°C 93% 30.45 in
(1031 mb)
E 3.5 mph
(E 6 kph)
- 10SM
04:15
Partly Cloudy
41°F / 5°C 41°F / 5°C 100% 30.42 in
(1030 mb)
Calm - 10SM
03:55
Partly Cloudy
41°F / 5°C 41°F / 5°C 100% 30.42 in
(1030 mb)
SE 3.5 mph
(SE 6 kph)
- 10SM
03:35
Partly Cloudy
43°F / 6°C 43°F / 6°C 100% 30.48 in
(1032 mb)
SE 3.5 mph
(SE 6 kph)
- 10SM
03:15
Partly Cloudy
41°F / 5°C 41°F / 5°C 100% 30.42 in
(1030 mb)
SE 3.5 mph
(SE 6 kph)
- 7SM
02:55
Clear
43°F / 6°C 41°F / 5°C 93% 30.48 in
(1032 mb)
SSE 3.5 mph
(SSE 6 kph)
- 7SM
02:35
Partly Cloudy
41°F / 5°C 41°F / 5°C 100% 30.42 in
(1030 mb)
SE 3.5 mph
(SE 6 kph)
- 7SM
02:15
Partly Cloudy
41°F / 5°C 41°F / 5°C 100% 30.39 in
(1029 mb)
SE 3.5 mph
(SE 6 kph)
- 7SM
01:55
Partly Cloudy
41°F / 5°C 41°F / 5°C 100% 30.45 in
(1031 mb)
SE 3.5 mph
(SE 6 kph)
- 7SM
01:35
Clear
43°F / 6°C 41°F / 5°C 93% 30.42 in
(1030 mb)
Calm - 7SM
01:15
Partly Cloudy
43°F / 6°C 41°F / 5°C 93% 30.39 in
(1029 mb)
SSE 3.5 mph
(SSE 6 kph)
- 7SM
00:55
Partly Cloudy
45°F / 7°C 41°F / 5°C 87% 30.39 in
(1029 mb)
Calm - 7SM
00:35
Partly Cloudy
48°F / 9°C 43°F / 6°C 82% 30.48 in
(1032 mb)
Calm - 7SM
00:15
Partly Cloudy
45°F / 7°C 43°F / 6°C 93% 30.42 in
(1030 mb)
SSW 3.5 mph
(SSW 6 kph)
- 7SM
Time Weather Temperature Dewpoint Humidity Pressure Winds Precip Visibility


Weather for websites

WeatherForYou.com, LLC is not responsible for any damages or problems caused by this service. Current weather conditions are obtained from the closest station including government and personal stations which may have varying degrees of accuracy. Weather forecasts are derived from the NOAA NDFD. Like all things, this site belongs to Jesus Christ... He just trusts us to maintain it. If you have any questions or comments email webmaster@weatherforyou.com

Copyright © 2016, WeatherForYou.com LLC. All rights reserved.